User: anonymous   Login
Location: Nairn
(57.5833°N, 3.8667°W)
Time: 12:19:00
(UTC+00:00)
Language:

Aureole 1 - Orbit

View from above orbital plane
View from above orbital plane
View from above satellite
View from above satellite

Ground track
Ground track

The orbit data is extracted from the following two-line orbital elements,

1  5729U 71119A   20296.94225289 +.00000741 +00000-0 +60338-4 0  9998
2  5729 073.9605 031.5601 0802459 298.9822 053.3144 13.76656625355942
Epoch (UTC): 22 October 2020 22:36:50
Eccentricity: 0.0802459
inclination: 73.9605°
perigee height: 385 km
apogee height: 1566 km
right ascension of ascending node: 31.5601°
argument of perigee: 298.9822°
revolutions per day: 13.76656625
mean anomaly at epoch: 53.3144°
orbit number at epoch: 35594

The dashed part of the orbit path shows where the satellite is in the earth's shadow,  

DLR